Regional Weather Roundup
Issued by NWS Wakefield, VA

Home | Current Version | Previous Version | Text Only | Print | Product List | Glossary Off
Versions: 1 2 3 4 5 6 7 8 9 10 11 12 13 14 15 16 17 18 19 20 21 22 23 24 25 26 27 28 29 30 31 32 33 34 35 36 37 38 39 40 41 42 43 44 45 46 47 48 49 50

000
ASUS41 KAKQ 030614
RWRAKQ

REGIONAL WEATHER ROUNDUP
NATIONAL WEATHER SERVICE WAKEFIELD VA
200 AM EDT SUN MAY 03 2015

Note: "fair" indicates few or no clouds below 12,000 feet with no
significant weather and/or obstructions to visibility. * = Denotes
station may not report precipitation (e.g., rain,snow,etc.),
thunder or fog.

VAZ042-051-052>054-056-030700-
NORTHERN VIRGINIA

CITY           SKY/WX    TMP DP  RH WIND       PRES   REMARKS
WASH NATIONAL  MOCLDY    58  51  78 S9        30.03F
DULLES         PTCLDY    54  43  66 CALM      30.04R
FORT BELVOIR   CLEAR     48  46  94 CALM      30.04S
QUANTICO       CLEAR     61  42  49 CALM      30.05S
FREDERICKSBRG* CLEAR     52  52  99 CALM      30.04F
STAFFORD*      CLEAR     47  45  90 CALM      30.08F
WARRENTON      CLEAR     45  45  99 CALM      30.04F
CULPEPER*      NOT AVBL
MANASSAS*      CLEAR     46  46 100 CALM      30.04F
LEESBURG*      CLEAR     59  45  58 W6        30.04S
WINCHESTER     CLEAR     55  36  47 CALM      30.05S
FRONT ROYAL*   MOCLDY    54  43  66 S8        30.05S
LURAY*         FAIR      50  46  87 S5        30.08S
$$

VAZ048-049-060>072-079>083-030700-
CENTRAL AND SOUTH CENTRAL VIRGINIA

CITY           SKY/WX    TMP DP  RH WIND       PRES   REMARKS
RICHMOND       CLEAR     59  48  67 W7        30.06F
CHESTERFIELD*  FAIR      55  39  54 W5        30.09S
PETERSBURG*    CLEAR     55  48  80 SW5       30.08S
HANOVER        CLEAR     50  48  93 CALM      30.08F
TAPPAHANNOCK*  CLEAR     55  46  71 SW3       30.06F
QUINTON*       FAIR      48  47  97 CALM      30.07S
CHARLOTTSVILLE MOCLDY    53  44  71 CALM      30.07S
GORDONSVILLE*  FAIR      47  45  90 CALM      30.06F
ORANGE*        CLEAR     46  45  93 CALM      30.07F
LOUISA*        CLEAR     52  46  82 W5        30.06S
BUMPASS*       FAIR      48  44  85 MISG      30.06F
FARMVILLE*     MOCLDY    46  46 100 CALM      30.08S
CREWE*         FAIR      48  47  95 CALM      30.08S
FORT PICKETT*  FAIR      50  49  97 S3        30.09S
CHASE CITY*    FAIR      50  50 100 CALM      30.10S
CLARKSVILLE*   FAIR      46  46 100 CALM      30.10S
SOUTH HILL*    CLEAR     47  46  96 CALM      30.16S
LAWRENCEVILLE* FAIR      51  49  92 CALM      30.09S
EMPORIA*       CLEAR     45  45 100 CALM      30.10S FOG
$$

VAZ088>098-030700-
SOUTHEAST VIRGINIA

CITY           SKY/WX    TMP DP  RH WIND       PRES   REMARKS
NORFOLK        CLEAR     52  47  83 SW9       30.07F
VIRGINIA BEACH CLEAR     48  44  86 SW6       30.07S
NORFOLK NAVAL  PTCLDY    59  49  69 SW8       30.08F
WEST POINT*    CLEAR     53  49  84 CALM      30.08S
SALUDA*        FAIR      52  48  88 MISG      30.06S
NEWPORT NEWS   CLEAR     56  49  77 SW7       30.07S
LANGLEY AFB    CLEAR     52  50  91 SW6       30.06S
FORT EUSTIS    CLEAR     56  52  88 S5        30.05S
WILLIAMSBURG*  CLEAR     55  52  88 S5        30.08S
HR EXEC AP*    FAIR      46  43  87 CALM      30.10S
FRANKLIN*      CLEAR     52  49  90 S3        30.08F
WAKEFIELD      CLEAR     50  47  89 CALM      30.07F
$$

VAZ020-022-025-037-045-030700-
WEST CENTRAL AND SOUTHWEST VIRGINIA

CITY           SKY/WX    TMP DP  RH WIND       PRES   REMARKS
STAUNTON*      CLOUDY    47  44  89 CALM      30.12S
WAYNESBORO*    CLOUDY    47  42  83 CALM      30.11S
HOT SPRINGS VA CLEAR     51  32  47 W6        30.15S
LYNCHBURG      MOCLDY    48  46  93 CALM      30.12S
DANVILLE       CLOUDY    52  49  89 SW3       30.11S
SOUTH BOSTON*  FAIR      47  46  95 CALM      30.10F
MARTINSVILLE   CLEAR     43  43 100 CALM      30.15S
ROANOKE        CLEAR     50  44  80 CALM      30.14S
BLACKSBURG     CLEAR     42  38  88 CALM      30.18S
DUBLIN*        CLEAR     47  39  74 CALM      30.16F
MARION*        CLEAR     43  38  84 CALM      30.19S
HILLSVILLE*    CLEAR     52  37  56 S3        30.17S
RICHLANDS*     FAIR      54  -7   8 CALM      30.16S
WISE*          CLEAR     55  32  41 CALM      30.16F
ABINGDON*      CLEAR     48  40  72 CALM      30.15S
$$

MDZ021>025-VAZ099-100-030700-
SOUTHERN MARYLAND AND THE DELMARVA PENINSULA

CITY           SKY/WX    TMP DP  RH WIND       PRES   REMARKS
PATUXENT RIVER CLEAR     56  48  74 SW10      30.03S
BAY BRIDGE APT   N/A    N/A N/A N/A S3        30.03S
LEONARDTOWN    CLEAR     54  46  76 SW3       30.06S
DOVER          CLEAR     49  49 100 S7        29.99F
GEORGETOWN     CLEAR     47  44  90 S5        30.05S
EASTON         CLEAR     55  55 100 SW6       30.07S
CAMBRIDGE      CLEAR     54  52  94 S3        30.04S
SALISBURY      CLEAR     47  44  90 S3        30.05S
OCEAN CITY     CLEAR     51  45  79 CALM      30.06S
WALLOPS ISLAND CLEAR     48  46  93 S6        30.06F
ACCOMACK*      CLEAR     50  48  93 S6        30.06F
$$

NCZ012>017-030>032-030700-
NORTH CENTRAL AND EASTERN NORTH CAROLINA

CITY           SKY/WX    TMP DP  RH WIND       PRES   REMARKS
ROANOKE RAPIDS FAIR      50  48  93 CALM      30.09S
RALEIGH        PTCLDY    50  48  93 CALM      30.12S
ELIZABETH CITY CLEAR     50  48  93 SW3       30.09S
AHOSKIE*       CLEAR     48  47  97 CALM      30.09F
EDENTON*       CLEAR     55  52  88 SW5       30.10S
CURRITUCK*     CLEAR     51  49  93 SW3       30.09S
KILL DEVIL HLS CLEAR     51  49  95 CALM      30.07F
MANTEO         CLEAR     46  45  95 CALM      30.09S
CAPE HATTERAS  CLEAR     43  42  97 W3        30.09S
TARBORO*       FAIR      48  47  97 CALM      30.11S
GOLDSBORO      CLEAR     51  50  95 SE2       30.09S
WASHINGTON     CLEAR     54  51  90 S5        30.11S
GREENVILLE     CLEAR     54  52  94 CALM      30.12S
NEW BERN       CLEAR     48  45  89 CALM      30.12F
WILMINGTON     CLEAR     54  52  93 CALM      30.11F
$$

VAZ048-030700-
ELSEWHERE

CITY           SKY/WX    TMP DP  RH WIND       PRES   REMARKS
HARRISBURG PA  PTCLDY    54  45  71 CALM      29.99R
BALTIMORE      MOCLDY    56  44  64 SW5       30.01S
ANNAPOLIS      CLOUDY    56  46  69 CALM      30.01F
ANDREWS AFB    PTCLDY    53  46  77 SW6       30.02F
PHILADELPHIA   PTCLDY    53  43  68 S7        30.04S
HENDERSON NC   CLEAR     48  46  93 SW3       30.11S
GREENSBORO     PTCLDY    53  44  71 W3        30.12S
ROCKY MOUNT    CLEAR     50  49  96 CALM      30.10F
$$

VAZ100-030700-
MARINE

STATION/POSITION TIME  TEMP    WIND        PRES    WAVE   SWELL
                       AIR SEA DIR/SP/G            HT/PER HT/PER
                 (UTC) (F)     (DEG/KT/KT) (MB)    (FT/S) (FT/S)
BRANDYWINE LGT   0500   53 53  190/ 10/ 12 1017.4S
CAPE MAY NJ      0500   51 59  160/  6/ 10 1017.2R
LEWES DE         0500   51 54  190/  5/  7 1017.2R
15NM E FENWICK I 0550   49 48              1017.6S   5/ 9
OCEAN-CITY-INLET 0500   53 54  200/  7/  9 1017.5R
WACHAPREAGUE VA  0500   54 59  220/  7/  8 1018.1R
THOMAS POINT MD  0600   60 56  190/  7/  7 1017.3S
GOOSES REEF MD   0600   59 57                N/A     0
COVE POINT MD    0500   61     260/ 14/ 18 1017.5S
SOLOMONS ISLAND  0500      58                N/A
BISHOPS HEAD MD  0500   57 61  180/  9/ 10 1017.1R
PINEY POINT MD   0500          260/  6/  7   N/A
CAMBRIDGE MD     0500   56 60  170/  2/  4 1017.0R
LEWISETTA VA     0500   60 62              1017.0S
RAPPAHANNOCK LGT 0500          180/ 13/ 14 1018.4R
YORK RVR RNG VA  0500   58     210/  9/ 10 1017.4S
YORKTOWN VA      0500   57 58  210/  7/  9 1017.7S
JAMESTOWN VA     0600   58 62  200/  4/  4 1017.2S
DOMINION TERM VA 0500   56     200/  9/ 10 1018.4R
KIPTOPEKE VA     0500      62  200/  7/  9   N/A
CHES BAY BRIDGE  0500   55 58  200/ 12/ 13 1017.8F
CAPE HENRY VA    0500   54     190/ 10/ 13 1016.9S
CHESAPEAKE LGHT  0500   53     220/ 12/ 12 1019.1R
WILLOUBY STN VA  0500   57     210/  8/  9 1018.8S
S CRANEY ISL VA  0500          190/  6/  8 1018.4S
CAPE HENRY BUOY  0528      51                N/A     4/11   2/11
1ST LANDING BUOY 0600      58                N/A     3/ 6
CAPE CHARLES BUO 0526      53                N/A     5/11   5/11
OFFSHORE WE BUOY 0511      51                N/A     6/11   7/11
64NM E OF VA BCH 0550   56 62  330/  4/  6 1017.8F   7/11   7/11
DUCK PIER NC     0500   55 53  220/  5/  7 1017.8S
44056 DUCK FRF   0511      55                N/A     6/11   3/11
OREGON INLET NC  0500   53 57  260/  3/  4 1018.8S
HATTERAS NC      0500   55 62  220/  3/  4 1018.5F
DIAMOND SHLS NC  0550   53     300/  4/  6 1018.9F   6/11   7/11
CAPE LOOKOUT NC  0600   60      CALM  /  1 1019.5S
$$


USA.gov is the U.S. government's official web portal to all federal, state and local government web resources and services.